Zurück zum Katalog

SL-3 DEB

AktivSSO
NORAD 14229·DEBRIS·🇷🇺 Russia

Gestartet Jul 24, 1983 von Baikonur Cosmodrome

Loading…

Nächste Überflüge (nächste 24 Stunden)

TLE

AktuellSource: Space-Track

Epoche: Sep 14, 2026, 11:00 UTC

1 14229U 83075D   26257.45887013  .00001770  00000-0  11110-3 0  9991
2 14229  97.8967 256.6595 0028230  28.7171 125.8485 15.10395837344900

Verfolge SL-3 DEB in Echtzeit mit AllMySat

Download on the App Store